[[{"header":{"parameterUnit":"m.s-1","parameterCategory":1,"la1":30.2991,"la2":30.254,"lo1":-89.0895,"lo2":-89.0444,"dy":0.0017,"dx":0.0017,"nx":28,"ny":28,"refTime":"2025-07-14T09:00:00:Z","depth":0,"parameterNumber":2,"parameterNumberName":"U-component_of_WINDS"},"data":[0,0,0,0,0,0,0,0,0,0,0,0,0,0,0,0,0,0,0,0,0,0,0,0,0,0,0,0,0,0,0,0,0,0,0,0,0,0,0,0,0,0,0,0,0,0,0,0,0,0,0,0,0,0,0,0,0,0,3.7766,3.7768,0,3.7929,3.7931,3.7933,3.7892,3.7888,3.7885,3.7882,3.8052,3.8059,3.8066,0,0,0,0,0,0,0,0,0,0,0,0,0,3.7419,3.7426,3.7766,3.7768,3.777,3.7929,3.7931,3.7933,3.7892,3.7888,3.7884,3.7881,3.8049,3.8058,3.8067,0,0,0,0,0,0,0,0,0,0,0,0,0,3.7575,3.7428,3.7765,3.7768,3.777,3.7928,3.7931,3.7934,3.7893,3.7888,3.7883,3.7879,3.8046,3.8057,3.8068,3.8234,0,0,3.8103,3.8108,0,0,0,0,0,0,0,0,3.7566,3.7588,3.7766,3.7768,3.7771,3.7885,3.7871,3.8035,3.7894,3.7846,3.7882,3.7876,3.8,3.8015,3.8056,3.8242,3.8249,3.8104,3.8111,3.8115,3.8119,0,0,0,0,0,0,0,3.7555,3.758,3.783,3.7768,3.7772,3.7762,3.7779,3.7902,3.7948,3.785,3.7848,3.7867,3.8001,3.8046,3.806,3.8252,3.8103,3.8113,3.812,3.8125,3.8582,3.8587,0,0,0,0,0,0,3.7542,3.7572,3.7825,3.7835,3.7654,3.7772,3.7791,3.7853,3.7947,3.7957,3.7871,3.7865,3.8029,3.8047,3.8066,3.8265,3.8115,3.8126,3.8132,3.8576,3.8583,3.8589,0,0,0,0,0,0,3.7535,3.7565,3.7819,3.7703,3.7734,3.7783,3.7854,3.7859,3.7904,3.7963,3.7971,3.7908,3.8026,3.805,3.8192,3.8271,3.8131,3.8141,3.857,3.8578,3.8586,3.8667,0,0,0,0,0,0,3.7525,3.7563,3.7626,3.7705,3.7741,3.7942,3.7858,3.7866,3.7923,3.7916,3.8,3.8009,3.8024,3.8176,3.8204,3.8284,3.815,3.8563,3.8574,3.8583,3.8657,3.8677,3.8693,0,0,0,0,0,3.7513,3.7643,3.763,3.766,3.7821,3.7947,3.7967,3.7981,3.7929,3.7994,3.8031,3.8007,3.8258,3.8191,3.8222,3.8306,3.8558,3.8571,3.8582,3.8649,3.8673,3.8693,0,0,0,0,0,0,3.7574,3.7654,3.7639,3.7799,3.7866,3.7939,3.8021,3.8005,3.8089,3.808,3.8093,3.8113,3.8258,3.8297,3.822,3.8472,3.8401,3.842,3.8441,3.8464,3.8481,3.8469,3.8159,0,0,0,0,0,3.7605,3.7701,3.7765,3.79,3.7934,3.7972,3.8027,3.8032,3.8102,3.8131,3.8179,3.8249,3.8344,3.8406,3.8497,3.8663,3.868,3.8737,3.8754,3.8769,3.8785,3.8875,3.89,3.8628,3.8628,3.8628,0,0,3.7672,3.7728,3.7787,3.7913,3.7966,3.8064,3.7996,3.8103,3.8177,3.8147,3.8284,3.8323,3.8402,3.8557,3.8627,3.8593,3.8864,3.8784,3.8795,3.8804,3.889,3.8916,3.8939,3.8637,3.8635,3.8634,0,0,3.7844,3.7896,3.8013,3.8067,3.8147,3.8171,3.8199,3.8276,3.8299,3.8437,3.8417,3.8505,3.8668,3.8724,3.8775,3.8968,3.8948,3.8997,3.9091,3.9178,3.92,3.9219,3.9287,3.9311,3.9013,3.9013,3.9014,0,3.7917,3.8064,3.8075,3.8184,3.824,3.8217,3.8336,3.8388,3.8495,3.8534,3.8494,3.8698,3.875,3.8917,3.8964,3.9006,3.9039,3.8987,3.9196,3.9215,3.9233,3.9298,3.9324,3.9019,3.9018,3.9018,3.9017,0,3.8149,3.8252,3.8337,3.8439,3.8504,3.8618,3.8646,3.8712,3.8711,3.8739,3.8879,3.8941,3.9043,3.9083,3.9083,3.9251,3.9227,3.9192,3.9121,3.9264,3.9325,3.9351,3.9026,3.9025,3.9023,3.9022,0,0,3.8364,3.847,3.8501,3.8547,3.8634,3.8713,3.8826,3.8925,3.898,3.9055,3.9149,3.9287,3.9255,3.9312,3.9319,3.9396,3.9544,3.9351,3.9353,3.9384,3.9732,3.9757,3.9786,3.9531,3.9536,3.954,3.9725,0,3.8542,3.8739,3.8752,3.8931,3.9025,3.9005,3.9103,3.9167,3.9197,3.9281,3.9314,3.9412,3.9362,3.9396,3.9472,3.951,3.9614,3.9497,3.962,3.9624,3.9599,3.9818,3.9845,4.0016,3.9749,3.9753,3.9756,0,3.8777,3.8857,3.9045,3.9118,3.9158,3.9246,3.9337,3.9418,3.9491,3.9507,3.9571,3.9566,3.9682,3.9607,3.9767,3.9687,3.9738,3.9764,3.9771,3.9783,3.9698,3.9834,4.0071,4.0097,3.9794,3.9791,3.9788,0,3.8914,3.9069,3.9201,3.9241,3.9329,3.9391,3.9431,3.9499,3.9557,3.9638,3.9676,3.9769,3.982,3.9892,3.9914,3.9857,4.0073,3.9999,4.0089,4.0089,4.0135,4.0131,4.0382,4.0169,4.0169,4.0168,4.0168,0,3.9112,3.9227,3.9263,3.9344,3.9473,3.9487,3.9614,3.965,3.971,3.9798,3.9787,3.987,3.9893,3.9981,3.9998,4.0127,4.0151,4.0167,4.017,4.0168,4.0166,4.0201,4.0189,4.0175,4.0174,4.0172,4.0171,0,3.9286,3.9314,3.9457,3.9529,3.9549,3.9641,3.9703,3.9781,3.9809,3.992,3.9947,3.9991,4.0093,4.0122,4.0245,4.0256,4.0408,4.0401,4.0383,4.0383,4.0471,4.0462,4.0752,4.0791,4.0553,4.0555,4.0557,0,3.941,3.9498,3.9579,3.9636,3.9679,3.9772,3.9831,3.9849,3.9911,4.0,4.0067,4.0168,4.0249,4.0414,4.0457,4.0551,4.0545,4.0641,4.0559,4.0554,4.0546,4.054,4.0548,4.0656,4.0658,4.066,4.0662,0,3.9626,3.9636,3.9721,3.9812,3.9883,3.9956,4.0025,4.0073,4.0101,4.0171,4.0275,4.0338,4.0463,4.0563,4.0658,4.0699,4.0686,4.0687,4.0713,4.0711,4.0696,4.0704,4.0424,4.068,4.0678,4.0677,4.0676,4.0675,3.9779,3.9856,3.9924,4.002,4.0074,4.0139,4.0215,4.0252,4.0339,4.0441,4.0446,4.0559,4.0629,4.0755,4.0802,4.089,4.0862,4.0899,4.0909,4.0917,4.0924,4.0683,4.0908,4.0907,4.0907,4.0907,4.0906,0,3.9994,4.0037,4.0125,4.0222,4.0297,4.0277,4.0352,4.0417,4.0516,4.0582,4.0661,4.0781,4.0877,4.0928,4.1024,4.1085,4.1082,4.111,4.1105,4.1115,4.0944,4.0912,4.1112,4.1112,4.1111,4.1111,4.1111,4.1111,4.0115,4.0244,4.0262,4.0417,4.0459,4.0569,4.0614,4.0674,4.0726,4.0859,4.0939,4.0971,4.1031,4.1132,4.122,4.1232,4.1268,4.13,4.1309,4.1148,4.1127,4.1107,4.1077,4.1308,4.1308,4.1472,4.1473,4.1474]},{"header":{"parameterUnit":"m.s-1","parameterCategory":1,"la1":30.2991,"la2":30.254,"lo1":-89.0895,"lo2":-89.0444,"dy":0.0017,"dx":0.0017,"nx":28,"ny":28,"refTime":"2025-07-14T09:00:00:Z","depth":0,"parameterNumber":3,"parameterNumberName":"V-component_of_WINDS"},"data":[0,0,0,0,0,0,0,0,0,0,0,0,0,0,0,0,0,0,0,0,0,0,0,0,0,0,0,0,0,0,0,0,0,0,0,0,0,0,0,0,0,0,0,0,0,0,0,0,0,0,0,0,0,0,0,0,0,0,0.0603,0.0602,0,0.0518,0.0517,0.0516,0.0475,0.0475,0.0475,0.0475,0.0388,0.0386,0.0384,0,0,0,0,0,0,0,0,0,0,0,0,0,0.0727,0.0725,0.0603,0.0602,0.0601,0.0518,0.0517,0.0516,0.0475,0.0475,0.0475,0.0475,0.0389,0.0386,0.0384,0,0,0,0,0,0,0,0,0,0,0,0,0,0.0661,0.0725,0.0603,0.057,0.0567,0.0518,0.0517,0.0516,0.0475,0.0475,0.0475,0.0475,0.039,0.0387,0.0383,0.0361,0,0,0.0373,0.0371,0,0,0,0,0,0,0,0,0.0665,0.0657,0.0576,0.0572,0.0568,0.0507,0.0529,0.0464,0.0475,0.051,0.0475,0.0475,0.0428,0.0421,0.0405,0.0357,0.0353,0.0372,0.037,0.0369,0.0368,0,0,0,0,0,0,0,0.067,0.066,0.0569,0.0575,0.057,0.0559,0.055,0.0517,0.047,0.0507,0.0504,0.0494,0.0426,0.0409,0.0403,0.0352,0.0372,0.0369,0.0367,0.0366,0.0279,0.0279,0,0,0,0,0,0,0.0679,0.0664,0.0572,0.0567,0.0618,0.0557,0.0547,0.0527,0.047,0.0461,0.0494,0.0493,0.0415,0.0407,0.04,0.0369,0.0369,0.0365,0.0363,0.0279,0.0279,0.0279,0,0,0,0,0,0,0.0682,0.0672,0.0575,0.0614,0.0601,0.0555,0.0533,0.0525,0.0508,0.0461,0.0452,0.0486,0.0415,0.0405,0.0371,0.0365,0.0364,0.0361,0.028,0.0279,0.0279,0.0308,0,0,0,0,0,0,0.0686,0.0673,0.0665,0.0615,0.0599,0.0548,0.0533,0.0523,0.0502,0.0499,0.045,0.0442,0.0414,0.0376,0.0367,0.0361,0.0358,0.028,0.0279,0.0279,0.0307,0.0309,0.031,0,0,0,0,0,0.0691,0.0676,0.0664,0.0653,0.0588,0.0548,0.0539,0.0507,0.0502,0.0493,0.0462,0.0444,0.0367,0.0373,0.0363,0.0355,0.028,0.028,0.0279,0.0307,0.0309,0.031,0,0,0,0,0,0,0.0727,0.0669,0.0655,0.0624,0.0591,0.0541,0.0529,0.051,0.0478,0.0476,0.0438,0.0427,0.0396,0.0372,0.0379,0.0329,0.0322,0.0319,0.0346,0.0348,0.0349,0.0356,0.0355,0,0,0,0,0,0.0732,0.0704,0.0655,0.0632,0.0616,0.0575,0.0557,0.0535,0.0499,0.0485,0.0451,0.0417,0.0385,0.0365,0.0333,0.0303,0.0292,0.0293,0.0294,0.0296,0.0294,0.0275,0.0275,0.0277,0.0277,0.0277,0,0,0.0741,0.0705,0.0691,0.0639,0.0611,0.0582,0.0564,0.0535,0.0514,0.048,0.0446,0.042,0.0379,0.0347,0.0331,0.0326,0.029,0.0295,0.0297,0.0294,0.0275,0.0274,0.0274,0.0277,0.0277,0.0277,0,0,0.0742,0.0714,0.0691,0.0663,0.062,0.0593,0.0587,0.0539,0.0521,0.0486,0.0459,0.0433,0.0379,0.0351,0.0329,0.0319,0.03,0.0309,0.0316,0.0298,0.0298,0.0298,0.0293,0.0292,0.0308,0.0308,0.0308,0,0.0759,0.0716,0.0682,0.0654,0.0632,0.0599,0.0576,0.055,0.0499,0.0484,0.0479,0.041,0.038,0.034,0.0337,0.0321,0.0313,0.0315,0.0301,0.03,0.0299,0.0295,0.0293,0.0309,0.0309,0.0309,0.0309,0,0.0738,0.0708,0.0695,0.0647,0.0623,0.0597,0.0558,0.0538,0.0518,0.0491,0.0454,0.0417,0.0377,0.0365,0.0346,0.0322,0.032,0.0309,0.03,0.0301,0.0296,0.0294,0.0311,0.031,0.031,0.031,0,0,0.0761,0.0693,0.0689,0.0666,0.0616,0.0592,0.0565,0.0525,0.0508,0.0473,0.0449,0.0403,0.0392,0.0367,0.0344,0.0328,0.0321,0.0318,0.0317,0.032,0.0292,0.03,0.0299,0.0308,0.0308,0.0307,0.0295,0,0.0756,0.0706,0.0673,0.0636,0.0608,0.0576,0.0552,0.0518,0.0491,0.0463,0.0433,0.0402,0.0389,0.0374,0.0357,0.0325,0.0315,0.0326,0.0284,0.0283,0.0296,0.0296,0.0306,0.0296,0.0293,0.0292,0.0292,0,0.0743,0.0709,0.0669,0.0621,0.0608,0.0587,0.0547,0.052,0.0481,0.0463,0.0435,0.041,0.0379,0.0373,0.0329,0.0337,0.0318,0.03,0.0299,0.0294,0.0288,0.0291,0.0292,0.0291,0.0289,0.0289,0.0289,0,0.0764,0.0708,0.0676,0.0658,0.0601,0.0586,0.0562,0.0523,0.05,0.0465,0.045,0.0412,0.0391,0.0362,0.0327,0.0326,0.0286,0.0278,0.027,0.0271,0.0263,0.0264,0.0261,0.0251,0.0251,0.0251,0.0251,0,0.0761,0.0738,0.0685,0.0665,0.0637,0.06,0.0573,0.0546,0.0511,0.0485,0.0455,0.0431,0.0387,0.0358,0.033,0.0297,0.0288,0.0272,0.0265,0.0275,0.0277,0.0262,0.0262,0.0251,0.0251,0.0251,0.0251,0,0.078,0.0743,0.0706,0.0655,0.0642,0.0623,0.0579,0.0558,0.053,0.0497,0.0487,0.0442,0.0406,0.0369,0.032,0.0301,0.0269,0.026,0.0282,0.0278,0.0272,0.0273,0.0259,0.0255,0.0249,0.0249,0.0249,0,0.078,0.0761,0.0708,0.0688,0.0664,0.0633,0.061,0.0572,0.0549,0.0502,0.0487,0.0448,0.0415,0.0358,0.0321,0.0282,0.0272,0.0269,0.0266,0.0276,0.0271,0.0272,0.027,0.0271,0.0271,0.0271,0.0272,0,0.0785,0.0768,0.0736,0.0697,0.067,0.0638,0.0604,0.059,0.0545,0.052,0.0482,0.0457,0.0406,0.0368,0.0325,0.0299,0.0277,0.0273,0.0269,0.0278,0.0292,0.0284,0.0286,0.0273,0.0273,0.0273,0.0273,0.0273,0.0794,0.0775,0.0734,0.0699,0.067,0.0639,0.0617,0.0585,0.0553,0.0509,0.0488,0.045,0.0409,0.0349,0.0324,0.0293,0.0287,0.0281,0.028,0.0279,0.0281,0.0297,0.0285,0.0285,0.0285,0.0285,0.0285,0,0.0797,0.0769,0.0737,0.069,0.0662,0.0644,0.0606,0.0584,0.0551,0.0515,0.0483,0.0439,0.0401,0.036,0.032,0.0303,0.0292,0.0293,0.0294,0.0288,0.0289,0.0296,0.0303,0.0303,0.0303,0.0303,0.0303,0.0303,0.0795,0.0762,0.0739,0.0691,0.0662,0.0625,0.0605,0.0575,0.0546,0.0499,0.0467,0.0441,0.0402,0.0359,0.0323,0.0312,0.0298,0.0302,0.0288,0.029,0.0288,0.0287,0.0294,0.03,0.03,0.029,0.029,0.029]}]]